Location: Arroyo de Ríolobos
(40.0508°N, 4.9565°W)
Time: 00:03:45
(UTC+00:00)

Daily predictions for brighter satellites

Satellite Brightness Start Highest point End
(mag) Time Altitude Azimuth Time Altitude Azimuth Time Altitude Azimuth
ACS3 Solar Sail 3.6 03:46:07 10° NNE 03:47:54 21° NNE 03:47:54 21° NNE
Cosmos 2360 Rocket 4.4 03:59:09 15° N 03:59:09 15° N 04:00:05 10° NNE
USA 234 3.9 03:51:53 10° ESE 03:58:05 48° NNE 03:58:53 46° NNE
SL-16 R/B 4.5 04:08:52 10° S 04:09:54 16° S 04:09:54 16° S
ARGOS 3.9 04:12:31 10° NNE 04:16:17 46° NNE 04:16:17 46° NNE
CZ-2C R/B 3.4 04:18:13 10° NNE 04:21:32 42° NNE 04:21:32 42° NNE
NOSS 3-1 (C) 3.4 04:27:25 53° NE 04:27:25 53° NE 04:31:32 10° NE
ADEOS Rocket 4.2 04:22:08 10° N 04:25:40 32° NNW 04:25:40 32° NNW
Cosmos 2219 Rocket 3.5 04:36:50 27° N 04:36:50 27° N 04:39:38 10° N
COSMOS 2428 2.7 04:41:30 34° SSW 04:44:04 81° ESE 04:49:47 10° NNE
USA 59 Rocket 2.1 04:50:47 11° NNE 04:50:47 11° NNE 04:50:57 10° NNE
Cosmos 2322 3.5 04:50:02 50° SW 04:51:32 76° WNW 04:57:13 10° NNE
SL-08 RB Rocket 4.2 04:50:16 10° N 04:53:29 44° N 04:53:29 44° N
Cosmos 1459 Rocket 4.2 04:49:14 10° N 04:55:37 74° E 05:01:55 10° SSE
Meteor 2-21 4.3 04:50:27 10° S 04:56:34 88° W 05:02:40 10° N
Cosmos 1727 Rocket 3.9 04:53:01 10° SSW 04:59:05 61° W 05:05:15 10° N
FengYun 1-2 T 4.5 04:54:21 10° NNE 04:59:55 71° ESE 05:05:30 10° S
USA 267 4.1 05:00:26 10° NE 05:06:05 32° NNW 05:07:39 29° NW
NOSS 3-1 (A) 2.9 05:07:03 18° SSW 05:10:24 74° ESE 05:15:41 10° NE
Cosmos 1328 3.3 05:10:02 10° S 05:13:38 78° W 05:17:17 10° N
Cosmos 1802 Rocket 4.2 05:07:34 10° N 05:13:57 77° E 05:20:13 10° SSE
Cosmos 1269 Rocket 3.9 05:09:27 14° NNW 05:13:58 84° WSW 05:19:15 10° SSE
Cosmos 1703 Rocket 3.5 05:10:39 10° S 05:14:59 87° E 05:19:22 10° N
Cosmos 921 Rocket 3.3 05:16:56 44° W 05:16:59 44° W 05:21:11 10° S
NOSS 2-1 (E) 4.2 05:18:52 27° N 05:18:52 27° N 05:20:44 10° NNE
Cosmos 2278 Rocket 2.9 05:13:03 10° NNW 05:18:37 54° ENE 05:24:07 10° SE
Meteor 2-16 Rocket 4.5 05:13:06 10° S 05:19:10 84° E 05:25:19 10° N
CZ-3 R/B 3.6 05:06:34 10° SW 05:19:35 30° S 05:25:00 10° ESE
Cosmos 2237 Rocket 2.6 05:14:33 10° S 05:20:09 66° ESE 05:25:46 10° NNE
Cosmos 1939 Rocket 3.1 05:20:21 10° N 05:23:41 41° WNW 05:23:41 41° WNW
Cosmos 2173 Rocket 3.9 05:18:55 10° NNW 05:24:54 61° W 05:30:52 10° S
Cosmos 2292 Rocket 3.8 05:21:33 10° S 05:25:26 74° E 05:30:30 10° N
BlueWalker 3 2.2 05:27:40 30° NNW 05:29:12 57° NE 05:32:45 10° ESE
Meteor 1-24 Rocket 3.7 05:24:08 10° SSW 05:29:55 66° W 05:35:32 10° N
USA 276 2.1 05:29:39 47° N 05:29:58 51° NNE 05:32:41 10° ESE
Helios 1A Rocket 2.8 05:28:02 10° SSE 05:31:24 65° ENE 05:34:46 10° N
ACS3 Solar Sail 3.6 05:31:07 10° NNW 05:32:02 12° NW 05:32:02 12° NW
CZ-4 R/B 3.8 05:33:47 10° N 05:38:40 72° WNW 05:43:24 10° SSW
Cosmos 1782 Rocket 3.8 05:35:52 10° N 05:40:16 69° E 05:44:35 10° SSE
Cosmos 2123 Rocket 4.0 05:34:31 10° SSW 05:40:35 55° W 05:46:40 10° N
USA 234 3.5 05:34:39 10° SSE 05:41:01 53° SW 05:46:14 16° WNW
Meteor 2-5 Rocket 3.8 05:35:13 10° SSW 05:41:04 60° WNW 05:46:52 10° N
Cosmos 1420 Rocket 4.4 05:37:11 10° S 05:42:23 68° ESE 05:47:39 10° NNE
Gbstr 26 Del rocket 4.3 05:41:19 23° WNW 05:43:48 36° NNW 05:49:15 10° NE
NOAA 12 4.0 05:42:41 10° N 05:48:00 70° WNW 05:53:16 10° SSW
Cosmos 44 Rocket 3.5 05:43:41 14° NW 05:48:02 59° WSW 05:53:06 10° SSE
Cosmos 1943 Rocket 2.1 05:49:40 10° NNW 05:55:10 73° WSW 06:00:38 10° SSE
Cosmos 1908 Rocket 4.1 05:51:54 10° NNW 05:55:59 37° W 06:00:01 10° SSW
Cosmos 2016 Rocket 4.1 05:49:58 10° NNW 05:56:14 60° W 06:02:26 10° S
CZ-2C R/B 4.1 05:58:11 10° NNW 06:00:41 14° WNW 06:00:45 14° WNW
Cosmos 1300 Rocket 3.5 05:56:27 10° NNW 06:00:44 60° W 06:04:56 10° S
Cosmos 1140 Rocket 4.1 05:56:41 10° NW 06:01:17 34° W 06:05:50 10° SSW
Timation 2 Rocket 4.3 06:02:26 10° NW 06:08:43 47° WSW 06:14:42 10° S
SJ 16-02 2.7 06:08:05 10° N 06:12:07 38° ENE 06:16:06 10° SE
Iridium 4 Rocket 3.7 06:09:44 10° NNW 06:13:30 30° W 06:17:08 10° SW
Aureole 3 Rocket 4.1 06:09:04 10° N 06:13:36 64° E 06:19:56 10° SSE
Cosmos 2061 Rocket 4.0 06:10:30 10° NNW 06:16:37 63° W 06:22:41 10° S
Cosmos 1378 Rocket 4.5 06:13:04 10° S 06:17:13 52° E 06:21:23 10° NNE
CBERS-1 4.1 06:12:58 10° NNE 06:18:07 84° ESE 06:23:13 10° SSW
SL-16 R/B 3.1 06:12:55 10° S 06:18:25 54° ESE 06:23:57 10° NNE
In-Cosmos 22 Rocket 4.5 06:13:38 10° S 06:19:25 81° E 06:25:16 10° NNE
Cosmos 1190 Rocket 4.2 06:16:27 10° NNW 06:21:45 79° ENE 06:26:58 10° SSE
IRS-1D 4.4 06:18:09 10° NNW 06:22:10 25° WNW 06:26:09 10° WSW
Cosmos 2056 Rocket 3.6 06:17:52 10° SSW 06:23:15 86° WNW 06:28:42 10° NNE
Cosmos 1869 2.9 06:20:44 10° N 06:24:15 88° W 06:27:43 10° S
COSMOS 2428 4.2 06:25:30 10° W 06:29:00 16° NW 06:32:31 10° N
